User: anonymous   Login
Location: Unspecified
(47.8330°N, 0.0000°E)
Time: 17:28:03
(UTC+00:00)
Language:

VELOX 1 - Orbit

View from above orbital plane
View from above orbital plane
View from above satellite
View from above satellite

Ground track
Ground track

The orbit data is extracted from the following two-line orbital elements,

1 40057U 14034E   19235.42757009  .00000104  00000-0  22125-4 0  9993
2 40057  98.2435 359.9615 0011470  29.8784 330.3085 14.77692203277478
Epoch (UTC): 23 August 2019 10:15:42
Eccentricity: 0.0011470
inclination: 98.2435°
perigee height: 628 km
apogee height: 644 km
right ascension of ascending node: 359.9615°
argument of perigee: 29.8784°
revolutions per day: 14.77692203
mean anomaly at epoch: 330.3085°
orbit number at epoch: 27747

The dashed part of the orbit path shows where the satellite is in the earth's shadow,  

DLR